EW0259 Weather Reports


time (UTC)temp
F
wind
direction
speed
knots
gust
knots
rain 1hr
in
rain 24hr
in
rain mn
in
humidity
%
barometer
mb
20260904095235 53 233 0.0 0.0 0.00 0.21 0.00 95 1012.0
20260904094725 53 233 0.0 0.0 0.00 0.21 0.00 95 1012.0
20260904094232 53 233 0.0 0.0 0.00 0.21 0.00 95 1012.0
20260904093739 53 233 0.0 0.0 0.00 0.21 0.00 95 1012.0
20260904093226 53 232 0.0 0.0 0.00 0.21 0.00 95 1012.0
20260904092813 53 232 0.0 0.0 0.00 0.21 0.00 95 1012.0
20260904092306 53 233 0.0 0.0 0.00 0.21 0.00 95 1012.1
20260904092233 53 233 0.0 0.0 0.00 0.21 0.00 95 1012.1
20260904091740 53 233 0.0 0.0 0.00 0.21 0.00 95 1012.0
20260904091226 53 232 0.0 0.0 0.00 0.21 0.00 95 1012.0
20260904090733 53 232 0.0 0.0 0.00 0.21 0.00 95 1012.1
20260904090220 53 232 0.0 0.0 0.01 0.21 0.00 95 1012.0
20260904085727 53 233 0.0 0.0 0.01 0.21 0.00 95 1012.1
20260904085235 53 232 0.0 1.7 0.01 0.21 0.00 95 1012.0
20260904084725 53 163 0.0 1.7 0.01 0.21 0.00 95 1012.1
20260904084232 53 163 0.0 1.7 0.01 0.21 0.00 95 1012.1
20260904083734 53 163 0.9 1.7 0.01 0.21 0.00 95 1012.1
20260904083221 53 163 0.0 0.0 0.01 0.21 0.00 95 1012.2
20260904082736 53 163 0.0 0.9 0.01 0.21 0.00 95 1012.2
20260904082225 53 163 0.0 0.9 0.01 0.21 0.00 95 1012.2
20260904081810 53 163 0.9 0.9 0.01 0.22 0.21 95 1012.1
20260904081739 53 163 0.9 0.9 0.01 0.22 0.21 95 1012.1
20260904081306 53 163 0.9 1.7 0.01 0.22 0.21 95 1011.9
20260904081234 53 163 0.9 1.7 0.01 0.22 0.21 95 1011.9
20260904080720 53 259 0.0 1.7 0.00 0.21 0.20 95 1011.9
20260904080308 53 260 0.9 1.7 0.00 0.21 0.20 95 1011.7
20260904075724 53 90 0.9 1.7 0.00 0.21 0.20 95 1011.8
20260904075232 53 90 0.0 0.0 0.00 0.21 0.20 95 1012.1
20260904074738 53 90 0.0 0.0 0.00 0.21 0.20 95 1012.0
20260904074224 53 90 0.0 0.0 0.00 0.21 0.20 95 1012.1
20260904073731 53 90 0.0 0.0 0.00 0.21 0.20 95 1012.1
20260904073258 53 90 0.0 0.0 0.00 0.21 0.20 94 1012.1
20260904073226 53 90 0.0 0.0 0.00 0.21 0.20 94 1012.1
20260904072753 53 90 0.0 0.0 0.00 0.21 0.20 95 1012.2
20260904072233 53 90 0.0 0.0 0.00 0.21 0.20 95 1012.3
20260904071739 53 90 0.0 0.0 0.01 0.21 0.20 95 1012.3
20260904071226 54 90 0.0 0.0 0.01 0.21 0.20 94 1012.3
20260904070721 54 90 0.0 0.0 0.01 0.21 0.20 95 1012.3
20260904070228 54 90 0.0 0.0 0.01 0.21 0.20 95 1012.3
20260904065735 54 90 0.0 0.0 0.01 0.21 0.20 95 1012.2
20260904065306 54 90 0.0 0.0 0.01 0.21 0.20 94 1012.3
20260904064738 54 90 0.0 0.0 0.01 0.21 0.20 94 1012.2
20260904064225 54 90 0.0 0.0 0.01 0.21 0.20 95 1012.3
20260904063727 54 90 0.0 0.0 0.01 0.21 0.20 95 1012.3
20260904063234 54 90 0.0 0.0 0.01 0.21 0.20 94 1012.2
20260904062802 54 90 0.0 0.0 0.01 0.21 0.20 94 1012.2
20260904062730 54 90 0.0 0.0 0.01 0.21 0.20 94 1012.2
20260904062238 54 90 0.0 0.0 0.01 0.21 0.20 95 1012.2
20260904061728 54 90 0.0 0.0 0.00 0.20 0.19 95 1012.2
20260904061235 54 102 0.0 0.0 0.00 0.20 0.19 95 1012.2
20260904060723 54 69 0.0 0.0 0.00 0.20 0.19 95 1012.2
20260904060310 54 69 0.0 0.0 0.00 0.20 0.19 94 1012.2
20260904060238 54 69 0.0 0.0 0.00 0.20 0.19 94 1012.2
20260904055725 54 69 0.0 0.0 0.00 0.20 0.19 94 1012.1
20260904055234 54 69 0.0 0.0 0.00 0.20 0.19 94 1012.1
20260904054800 54 69 0.0 0.0 0.01 0.20 0.19 94 1012.0
20260904054257 54 69 0.0 0.0 0.01 0.20 0.19 94 1012.0
20260904053752 54 69 0.0 0.0 0.01 0.20 0.19 94 1012.0
20260904053720 54 69 0.0 0.0 0.01 0.20 0.19 94 1012.0
20260904053307 54 69 0.0 0.0 0.01 0.20 0.19 94 1012.1
20260904053235 54 69 0.0 0.0 0.01 0.20 0.19 94 1012.1
20260904052803 54 69 0.0 0.0 0.01 0.20 0.19 94 1012.0
20260904052240 54 69 0.0 0.0 0.01 0.20 0.19 94 1012.0
20260904051725 54 69 0.0 0.0 0.01 0.20 0.19 94 1011.9
20260904051232 54 69 0.0 0.0 0.01 0.20 0.19 94 1012.0
20260904050759 54 69 0.0 0.0 0.01 0.20 0.19 94 1011.9
20260904050727 54 69 0.0 0.0 0.01 0.20 0.19 94 1011.9
20260904050234 54 69 0.0 0.0 0.01 0.20 0.19 94 1012.0
20260904045802 54 69 0.0 0.0 0.01 0.20 0.19 94 1012.1
20260904045238 54 69 0.0 0.0 0.01 0.20 0.19 94 1012.1
20260904044724 54 69 0.0 0.0 0.00 0.19 0.18 94 1012.1
20260904044235 54 69 0.0 0.0 0.01 0.19 0.18 94 1012.1
20260904043722 54 69 0.0 0.0 0.01 0.19 0.18 94 1012.0
20260904043229 54 69 0.0 0.0 0.01 0.19 0.18 94 1012.1
20260904042736 54 69 0.0 0.0 0.01 0.19 0.18 94 1012.1
20260904042225 54 69 0.0 0.0 0.01 0.19 0.18 94 1012.1
20260904041730 54 69 0.0 0.0 0.01 0.19 0.18 94 1012.1
20260904041257 54 69 0.0 0.0 0.01 0.19 0.18 94 1012.0
20260904040732 54 69 0.0 0.0 0.01 0.19 0.18 94 1011.9
20260904040300 54 69 0.0 0.0 0.02 0.19 0.18 94 1011.8
20260904035735 54 69 0.0 0.0 0.02 0.19 0.18 94 1011.7
20260904035223 54 69 0.0 0.0 0.02 0.19 0.18 94 1011.7
20260904034729 54 69 0.0 0.0 0.02 0.19 0.18 93 1011.7
20260904034220 54 69 0.0 0.0 0.01 0.18 0.17 93 1011.7
20260904033727 54 69 0.0 0.0 0.01 0.18 0.17 93 1011.6
20260904033233 55 69 0.0 0.0 0.01 0.18 0.17 93 1011.7
20260904032720 55 69 0.0 1.7 0.02 0.18 0.17 93 1011.6
20260904032309 55 69 0.0 1.7 0.02 0.18 0.17 93 1011.5
20260904031723 55 69 0.0 0.9 0.02 0.18 0.17 93 1011.5
20260904031230 55 69 0.0 1.7 0.02 0.18 0.17 93 1011.5
20260904030737 55 69 0.9 1.7 0.02 0.18 0.17 94 1011.6
20260904030224 55 130 0.0 0.9 0.02 0.17 0.16 94 1011.5
20260904025731 55 244 0.0 0.0 0.02 0.17 0.16 93 1011.3
20260904025223 55 243 0.0 0.0 0.02 0.17 0.16 93 1011.4
20260904024729 55 243 0.0 0.0 0.02 0.17 0.16 93 1011.3
20260904024236 55 243 0.0 0.0 0.03 0.17 0.16 93 1011.4
20260904023803 55 243 0.0 0.0 0.03 0.17 0.16 93 1011.4
20260904023238 55 243 0.0 0.0 0.03 0.17 0.16 93 1011.5
20260904022725 55 243 0.0 0.9 0.03 0.16 0.15 92 1011.4
20260904022234 55 244 0.0 0.9 0.03 0.16 0.15 92 1011.3
20260904021739 55 242 0.0 0.9 0.03 0.16 0.15 92 1011.2
20260904021306 55 243 0.0 0.9 0.04 0.16 0.15 92 1011.3
20260904021234 55 243 0.0 0.9 0.04 0.16 0.15 92 1011.3
20260904020721 56 242 0.0 1.7 0.03 0.15 0.14 92 1011.3
20260904020228 56 243 0.0 1.7 0.03 0.15 0.14 92 1011.3
20260904015810 56 243 0.0 1.7 0.03 0.15 0.14 92 1011.3
20260904015226 56 240 0.0 0.0 0.04 0.15 0.14 92 1011.3
20260904014753 56 199 0.0 0.0 0.03 0.14 0.14 92 1011.3
20260904014228 56 230 0.0 0.0 0.03 0.14 0.13 92 1011.3
20260904013755 56 242 0.0 0.0 0.03 0.14 0.13 92 1011.4
20260904013723 56 242 0.0 0.0 0.03 0.14 0.13 92 1011.4
20260904013310 56 242 0.0 0.0 0.03 0.14 0.13 92 1011.5
20260904013238 56 242 0.0 0.0 0.03 0.14 0.13 92 1011.5
20260904012805 56 248 0.0 0.0 0.02 0.13 0.12 92 1011.6
20260904012306 56 248 0.0 0.0 0.02 0.13 0.12 91 1011.7
20260904012231 56 248 0.0 0.0 0.02 0.13 0.12 91 1011.7
20260904011720 56 192 0.0 0.0 0.02 0.19 0.12 91 1011.5
20260904011227 56 192 0.0 0.0 0.01 0.18 0.11 89 1011.6
20260904010734 56 192 0.0 0.9 0.01 0.18 0.11 88 1011.6
20260904010220 57 192 0.9 1.7 0.01 0.18 0.11 85 1011.6
20260904005727 58 248 0.0 1.7 0.00 0.17 0.10 84 1011.4
20260904005255 59 248 0.0 5.2 0.00 0.17 0.10 81 1011.4
20260904005223 59 248 0.0 5.2 0.00 0.17 0.10 81 1011.4
20260904004729 61 296 0.9 5.2 0.00 0.17 0.10 76 1011.3
20260904004236 63 251 2.6 5.2 0.00 0.17 0.10 73 1011.3
20260904003723 63 240 0.9 1.7 0.00 0.17 0.10 72 1011.1
20260904003230 64 70 0.0 1.7 0.00 0.17 0.10 68 1010.9
20260904002737 64 54 0.0 2.6 0.00 0.17 0.10 68 1010.7
20260904002229 64 48 0.0 4.3 0.00 0.17 0.10 68 1010.6
20260904001735 64 39 1.7 4.3 0.00 0.17 0.10 68 1010.6
20260904001302 64 81 1.7 4.3 0.00 0.17 0.10 67 1010.7
20260904000736 64 83 2.6 4.3 0.00 0.17 0.10 68 1010.9
20260904000303 64 58 0.9 4.3 0.00 0.17 0.10 68 1010.9
20260903235739 64 58 0.0 4.3 0.00 0.17 0.10 67 1010.8
20260903235227 65 88 0.9 3.5 0.00 0.17 0.10 67 1010.8
20260903234733 65 53 0.9 4.3 0.00 0.17 0.10 66 1010.8
20260903234220 65 109 2.6 4.3 0.00 0.17 0.10 65 1010.8
20260903233808 65 86 0.9 1.7 0.00 0.17 0.10 65 1010.9
20260903233223 65 59 0.9 3.5 0.00 0.17 0.10 67 1011.0
20260903232810 65 348 0.9 1.7 0.00 0.17 0.10 65 1010.9
20260903232738 65 348 0.9 1.7 0.00 0.17 0.10 65 1010.9
20260903232306 65 83 0.0 2.6 0.00 0.17 0.10 67 1010.9
20260903231800 65 65 0.9 4.3 0.00 0.26 0.10 68 1010.8
20260903231255 65 81 0.9 7.0 0.00 0.26 0.10 66 1010.7
20260903231224 65 81 0.9 7.0 0.00 0.26 0.10 66 1010.7
20260903230729 65 348 0.9 7.0 0.00 0.26 0.10 67 1010.7
20260903230256 66 78 2.6 5.2 0.01 0.26 0.10 67 1010.8
20260903230224 66 78 2.6 5.2 0.01 0.26 0.10 67 1010.8
20260903225731 65 84 0.9 5.2 0.01 0.26 0.10 68 1010.9
20260903225239 65 86 3.5 5.2 0.01 0.26 0.10 68 1010.8
20260903224729 65 34 2.6 4.3 0.01 0.26 0.10 69 1010.8
20260903224236 65 121 1.7 3.5 0.01 0.26 0.10 69 1010.8
20260903223724 64 38 0.9 3.5 0.02 0.26 0.10 69 1010.9
20260903223230 64 79 1.7 3.5 0.02 0.26 0.10 70 1011.0
20260903222737 64 35 0.9 2.6 0.03 0.26 0.10 75 1011.0
20260903222225 63 345 0.0 1.7 0.03 0.26 0.10 77 1011.0
20260903221731 63 340 0.0 1.7 0.03 0.33 0.10 76 1011.0
20260903221238 62 49 0.0 1.7 0.03 0.33 0.10 77 1010.9
20260903220806 62 31 0.9 1.7 0.03 0.33 0.10 75 1011.0
20260903220302 62 324 0.0 0.9 0.02 0.32 0.09 78 1011.0
20260903215757 61 71 0.0 0.0 0.02 0.32 0.09 78 1011.2
20260903215231 61 71 0.0 0.0 0.02 0.32 0.09 80 1011.2
20260903214735 61 71 0.0 0.0 0.02 0.32 0.09 81 1011.1
20260903214224 61 71 0.0 0.0 0.02 0.32 0.09 81 1011.1
20260903213805 62 72 0.0 1.7 0.01 0.31 0.08 78 1011.2
20260903213257 63 72 0.0 1.7 0.01 0.31 0.08 77 1011.3
20260903212734 63 67 0.0 1.7 0.00 0.30 0.07 70 1011.2
20260903212239 63 40 0.0 2.6 0.00 0.30 0.07 68 1011.3
20260903211803 63 289 0.0 3.5 0.00 0.33 0.07 67 1011.1
20260903211731 63 289 0.0 3.5 0.00 0.33 0.07 67 1011.1
20260903211231 63 317 0.9 3.5 0.00 0.33 0.07 69 1011.1
20260903210736 63 281 0.0 2.6 0.00 0.33 0.07 68 1011.2
20260903210241 63 90 1.7 5.2 0.00 0.33 0.07 67 1011.2
20260903205726 64 294 1.7 5.2 0.00 0.33 0.07 67 1011.2
20260903205231 64 19 0.9 1.7 0.00 0.33 0.07 65 1011.1
20260903204735 64 275 0.9 1.7 0.00 0.33 0.07 66 1011.1
20260903204240 64 114 0.0 3.5 0.00 0.33 0.07 65 1011.0
20260903203804 64 298 1.7 3.5 0.00 0.33 0.07 63 1010.9
20260903203238 65 315 1.7 4.3 0.00 0.33 0.07 63 1011.0
20260903202803 65 246 1.7 4.3 0.00 0.33 0.07 61 1010.8
20260903202731 65 246 1.7 4.3 0.00 0.33 0.07 61 1010.8
20260903202237 66 36 0.9 4.3 0.00 0.33 0.07 62 1010.7
20260903201724 65 348 1.7 3.5 0.00 0.37 0.07 64 1010.7
20260903201228 65 304 0.9 2.6 0.00 0.37 0.07 63 1010.7
20260903200733 64 27 0.0 3.5 0.00 0.37 0.07 65 1010.8
20260903200237 64 355 0.9 3.5 0.00 0.37 0.07 65 1010.8
20260903195742 64 284 0.9 3.5 0.00 0.37 0.07 66 1010.8
20260903195227 63 319 0.9 2.6 0.00 0.37 0.07 65 1010.8
20260903194730 63 240 0.9 5.2 0.00 0.37 0.07 64 1010.8
20260903194234 63 302 0.9 5.2 0.00 0.37 0.07 66 1010.9
20260903193739 63 194 0.9 2.6 0.00 0.37 0.07 70 1010.9
20260903193242 63 64 0.9 1.7 0.00 0.37 0.07 69 1010.9
20260903192727 63 51 0.9 5.2 0.00 0.37 0.07 68 1010.8
20260903192236 63 98 1.7 5.2 0.00 0.37 0.07 70 1010.9
20260903191739 62 117 0.9 3.5 0.00 0.37 0.07 70 1010.8
20260903191224 62 16 1.7 3.5 0.00 0.37 0.07 69 1010.9
20260903190728 62 237 0.9 4.3 0.00 0.37 0.07 70 1010.9
20260903190232 62 327 1.7 4.3 0.00 0.37 0.07 70 1010.8
20260903185736 62 165 0.0 2.6 0.00 0.37 0.07 71 1010.8
20260903185306 62 262 0.0 2.6 0.00 0.37 0.07 72 1010.7
20260903184734 62 153 0.9 2.6 0.00 0.37 0.07 72 1010.8
20260903184259 61 97 0.9 1.7 0.00 0.37 0.07 80 1010.9
20260903183811 61 84 0.0 1.7 0.00 0.37 0.07 77 1010.8
20260903183740 61 84 0.0 1.7 0.00 0.37 0.07 77 1010.8
20260903183223 61 111 0.0 2.6 0.00 0.37 0.07 81 1010.7
20260903182727 60 117 0.9 2.6 0.00 0.37 0.07 81 1010.7
20260903182232 60 99 0.9 1.7 0.00 0.37 0.07 79 1010.7
20260903181755 60 101 0.0 2.6 0.00 0.37 0.07 81 1010.6
20260903181228 60 158 0.9 2.6 0.00 0.37 0.07 81 1010.8
20260903180733 60 148 0.0 2.6 0.00 0.37 0.07 85 1010.7
20260903180241 59 148 0.0 2.6 0.00 0.37 0.07 85 1010.7
20260903175726 59 190 0.0 1.7 0.00 0.37 0.07 85 1010.7
20260903175312 59 261 0.0 1.7 0.00 0.37 0.07 85 1010.8
20260903174724 59 183 0.0 1.7 0.00 0.37 0.07 85 1010.6
20260903174309 59 165 0.9 1.7 0.00 0.37 0.07 85 1010.6
20260903173742 59 173 0.0 1.7 0.00 0.37 0.07 85 1010.6
20260903173226 59 123 0.9 5.2 0.00 0.37 0.07 86 1010.5
20260903172731 59 177 0.9 5.2 0.00 0.37 0.07 86 1010.5
20260903172256 59 145 0.9 3.5 0.00 0.37 0.07 86 1010.3
20260903171808 59 94 0.0 2.6 0.00 0.37 0.07 86 1010.3
20260903171737 59 94 0.0 2.6 0.00 0.37 0.07 86 1010.3
20260903171240 59 118 0.9 2.6 0.00 0.37 0.07 86 1010.3
20260903170724 58 88 0.9 2.6 0.00 0.37 0.07 86 1010.4
20260903170229 57 116 0.9 4.3 0.00 0.37 0.07 87 1010.5
20260903165814 57 64 1.7 4.3 0.00 0.37 0.07 88 1010.5
20260903165227 56 92 1.7 4.3 0.00 0.37 0.07 89 1010.4
20260903164730 56 85 1.7 2.6 0.00 0.37 0.07 90 1010.4
20260903164236 56 86 0.0 1.7 0.00 0.37 0.07 92 1010.5
20260903163725 56 101 0.0 0.9 0.00 0.37 0.07 92 1010.5
20260903163310 55 101 0.0 0.9 0.00 0.37 0.07 91 1010.4
20260903163238 55 101 0.0 0.9 0.00 0.37 0.07 91 1010.4
20260903162802 55 101 0.9 1.7 0.00 0.37 0.07 90 1010.4
20260903162225 55 86 0.9 2.6 0.00 0.37 0.07 91 1010.5
20260903161752 55 88 0.9 1.7 0.00 0.37 0.07 92 1010.5
20260903161227 55 36 0.0 0.0 0.00 0.37 0.07 91 1010.6
20260903160734 55 36 0.0 1.7 0.00 0.37 0.07 92 1010.6
20260903160301 55 343 0.0 1.7 0.00 0.37 0.07 91 1010.5
20260903155736 55 36 0.0 1.7 0.00 0.37 0.07 93 1010.5
20260903155224 55 74 0.9 1.7 0.00 0.37 0.07 93 1010.5
20260903154730 54 83 0.0 1.7 0.00 0.37 0.07 93 1010.5
20260903154257 54 66 0.9 1.7 0.00 0.37 0.07 94 1010.4
20260903154226 54 66 0.9 1.7 0.00 0.37 0.07 94 1010.4
20260903153732 54 114 0.0 1.7 0.00 0.37 0.07 95 1010.4
20260903153300 53 119 0.0 1.7 0.00 0.37 0.07 94 1010.4
20260903153229 53 119 0.0 1.7 0.00 0.37 0.07 94 1010.4
20260903152735 53 111 0.0 1.7 0.00 0.37 0.07 94 1010.3
20260903152223 53 130 0.0 1.7 0.00 0.37 0.07 94 1010.4
20260903151810 53 152 0.0 2.6 0.01 0.37 0.07 94 1010.4
20260903151305 53 81 0.0 3.5 0.01 0.37 0.07 95 1010.3
20260903150720 52 90 0.9 1.7 0.01 0.37 0.07 95 1010.3
20260903150307 52 86 0.0 1.7 0.01 0.37 0.07 95 1010.4
20260903150235 52 86 0.0 1.7 0.01 0.37 0.07 95 1010.4
20260903145726 52 88 0.0 3.5 0.01 0.37 0.07 95 1010.3
20260903145254 52 86 1.7 2.6 0.02 0.37 0.07 95 1010.4
20260903145223 52 86 1.7 2.6 0.02 0.37 0.07 95 1010.4
20260903144728 52 80 1.7 2.6 0.02 0.37 0.07 95 1010.2
20260903144235 52 74 0.9 1.7 0.02 0.37 0.07 95 1010.3
20260903143722 52 108 0.0 1.7 0.02 0.37 0.07 95 1010.3
20260903143229 52 130 0.0 1.7 0.02 0.37 0.07 95 1010.2
20260903142736 52 94 0.0 2.6 0.03 0.37 0.07 95 1010.2
20260903142225 52 76 1.7 2.6 0.03 0.37 0.07 95 1010.2
20260903141730 52 93 0.0 1.7 0.02 0.36 0.06 95 1010.2
20260903141237 52 53 0.0 0.0 0.02 0.36 0.06 95 1010.3
20260903140805 52 53 0.0 0.0 0.03 0.36 0.06 95 1010.2
20260903140220 52 53 0.0 0.0 0.03 0.36 0.06 95 1010.2
20260903135731 52 53 0.0 0.0 0.03 0.36 0.06 95 1010.1
20260903135259 52 46 0.0 0.0 0.02 0.35 0.05 95 1010.2
20260903135228 52 46 0.0 0.0 0.02 0.35 0.05 95 1010.2
20260903134733 52 46 0.0 1.7 0.02 0.35 0.05 95 1010.1
20260903134220 52 46 0.0 1.7 0.03 0.35 0.05 95 1010.0
20260903133808 52 46 0.0 1.7 0.03 0.35 0.05 95 1010.0
20260903133223 52 46 0.0 0.0 0.03 0.35 0.05 95 1009.9
20260903132731 52 46 0.0 0.0 0.02 0.34 0.04 95 1009.9
20260903132238 52 46 0.0 0.9 0.02 0.34 0.04 95 1009.9
20260903131725 52 46 0.0 1.7 0.03 0.34 0.04 95 1009.9
20260903131231 52 46 0.0 1.7 0.03 0.34 0.04 95 1009.9
20260903130738 52 254 0.0 0.0 0.02 0.33 0.03 95 1009.8
20260903130306 52 255 0.0 0.0 0.02 0.33 0.03 95 1009.9
20260903125721 52 254 0.0 0.0 0.02 0.33 0.03 95 1009.9
20260903125310 52 255 0.0 0.0 0.02 0.33 0.03 95 1009.9
20260903124727 52 254 0.0 0.0 0.02 0.33 0.03 95 1009.8
20260903124234 52 254 0.0 0.9 0.01 0.32 0.02 95 1009.9
20260903123722 52 255 0.0 1.7 0.01 0.32 0.02 95 1009.9
20260903123228 52 254 0.0 1.7 0.01 0.32 0.02 95 1009.8
20260903122735 52 255 0.0 1.7 0.01 0.32 0.02 95 1009.8
20260903122223 52 255 0.9 1.7 0.01 0.32 0.02 95 1009.8
20260903121809 52 215 0.0 0.0 0.00 0.31 0.01 95 1009.7
20260903121224 52 94 0.0 0.0 0.00 0.31 0.01 95 1009.7
20260903120731 52 93 0.0 0.0 0.00 0.31 0.01 95 1009.5
20260903120258 52 93 0.0 0.0 0.00 0.31 0.01 95 1009.4
20260903120226 52 93 0.0 0.0 0.00 0.31 0.01 95 1009.4
20260903115753 52 94 0.0 0.0 0.00 0.31 0.01 95 1009.3
20260903115229 51 93 0.0 0.0 0.00 0.31 0.01 95 1009.3
20260903114735 52 93 0.0 1.7 0.01 0.31 0.01 95 1009.1
20260903114226 51 93 0.0 1.7 0.01 0.31 0.01 95 1009.1
20260903113733 51 93 0.0 0.0 0.01 0.31 0.01 95 1009.2
20260903113220 51 94 0.0 0.0 0.01 0.31 0.01 95 1009.2
20260903112727 51 94 0.0 0.0 0.01 0.31 0.01 95 1009.2
20260903112236 51 93 0.0 0.0 0.01 0.31 0.01 95 1009.2
20260903111721 51 92 0.0 0.0 0.01 0.31 0.01 95 1009.2
20260903111228 51 92 0.0 0.0 0.01 0.31 0.01 95 1009.3
20260903110735 51 94 0.0 0.0 0.01 0.31 0.01 95 1009.3
20260903110222 51 92 0.0 0.0 0.01 0.31 0.01 95 1009.3
20260903105729 51 93 0.0 0.0 0.01 0.31 0.01 95 1009.2
20260903105258 51 94 0.0 0.0 0.01 0.31 0.01 95 1009.2
20260903104736 51 93 0.0 0.0 0.00 0.30 0.00 95 1009.1
20260903104303 51 93 0.0 0.0 0.00 0.30 0.00 95 1009.1
20260903103738 52 93 0.0 0.0 0.00 0.30 0.00 95 1009.3
20260903103305 51 93 0.0 0.0 0.00 0.30 0.00 95 1009.2
20260903102739 51 93 0.0 0.0 0.00 0.30 0.00 95 1009.2
20260903102227 51 93 0.0 0.0 0.00 0.30 0.00 95 1009.2
20260903101733 51 94 0.0 0.0 0.00 0.30 0.00 95 1009.2
20260903101220 51 93 0.0 0.0 0.00 0.30 0.00 95 1009.2
20260903100808 52 93 0.0 0.9 0.00 0.30 0.00 95 1009.2
20260903100223 52 93 0.0 1.7 0.00 0.30 0.00 95 1009.2